GW2923 Weather Reports


time (UTC)temp
C
wind
direction
speed
KPH
gust
KPH
rain 1hr
cm
rain 24hr
cm
rain mn
cm
humidity
%
barometer
mb
20260508102031 11 257 6.4 22.5 0.00 0.00 0.00 33 1026.2
20260508101545 11 314 8.0 17.7 0.00 0.00 0.00 33 1026.2
20260508101031 12 303 3.2 17.7 0.00 0.00 0.00 31 1026.1
20260508100531 12 263 6.4 17.7 0.00 0.00 0.00 28 1026.0
20260508095533 12 303 11.3 20.9 0.00 0.00 0.00 31 1026.1
20260508095032 12 280 14.5 20.9 0.00 0.00 0.00 33 1026.2
20260508094542 11 306 6.4 20.9 0.00 0.00 0.00 33 1026.1
20260508094032 12 331 8.0 20.9 0.00 0.00 0.00 33 1026.2
20260508093534 12 289 9.7 20.9 0.00 0.00 0.00 31 1026.1
20260508093041 12 297 8.0 19.3 0.00 0.00 0.00 30 1026.1
20260508092534 12 274 6.4 16.1 0.00 0.00 0.00 31 1026.2
20260508092032 11 267 8.0 20.9 0.00 0.00 0.00 32 1026.2
20260508091553 12 288 6.4 20.9 0.00 0.00 0.00 28 1026.2
20260508091035 12 319 12.9 20.9 0.00 0.00 0.00 30 1026.2
20260508090531 12 227 8.0 20.9 0.00 0.00 0.00 32 1026.0
20260508090108 12 251 11.3 22.5 0.00 0.00 0.00 31 1026.2
20260508085534 11 290 9.7 22.5 0.00 0.00 0.00 35 1026.2
20260508085032 10 280 9.7 20.9 0.00 0.00 0.00 35 1026.2
20260508084548 11 27 9.7 20.9 0.00 0.00 0.00 32 1026.2
20260508084033 12 1 9.7 20.9 0.00 0.00 0.00 32 1026.0
20260508083535 11 357 8.0 19.3 0.00 0.00 0.00 33 1026.0
20260508083041 11 338 3.2 22.5 0.00 0.00 0.00 37 1026.1
20260508082535 11 281 9.7 22.5 0.00 0.00 0.00 33 1026.0
20260508082033 11 315 4.8 17.7 0.00 0.00 0.00 33 1026.0
20260508081601 11 277 6.4 17.7 0.00 0.00 0.00 39 1026.0
20260508081034 11 299 8.0 19.3 0.00 0.00 0.00 36 1025.9
20260508080532 11 326 8.0 19.3 0.00 0.00 0.00 34 1026.0
20260508080051 11 283 8.0 22.5 0.00 0.00 0.00 30 1025.9
20260508075533 11 356 4.8 22.5 0.00 0.00 0.00 32 1025.8
20260508075033 11 324 8.0 19.3 0.00 0.00 0.00 34 1025.8
20260508074543 11 311 3.2 16.1 0.00 0.00 0.00 34 1025.8
20260508074033 10 263 6.4 16.1 0.00 0.00 0.00 35 1025.7
20260508073534 10 9 6.4 14.5 0.00 0.00 0.00 35 1025.7
20260508073052 10 9 4.8 14.5 0.00 0.00 0.00 41 1025.6
20260508072532 10 261 1.6 6.4 0.00 0.00 0.00 51 1025.5
20260508072034 9 0 0.0 9.7 0.00 0.00 0.00 52 1025.5
20260508071540 9 24 3.2 9.7 0.00 0.00 0.00 50 1025.6
20260508071031 10 286 4.8 9.7 0.00 0.00 0.00 53 1025.5
20260508070535 9 234 3.2 11.3 0.00 0.00 0.00 53 1025.3
20260508070046 8 265 6.4 11.3 0.00 0.00 0.00 54 1025.3
20260508065534 8 261 1.6 9.7 0.00 0.00 0.00 58 1025.3
20260508065034 8 285 3.2 9.7 0.00 0.00 0.00 60 1025.2
20260508064541 8 273 4.8 9.7 0.00 0.00 0.00 61 1025.2
20260508064038 8 0 3.2 6.4 0.00 0.00 0.00 65 1025.2
20260508063534 7 0 0.0 6.4 0.00 0.00 0.00 67 1025.1
20260508063039 7 272 3.2 6.4 0.00 0.00 0.00 67 1025.1
20260508062533 7 264 1.6 6.4 0.00 0.00 0.00 69 1025.1
20260508062034 7 303 3.2 6.4 0.00 0.00 0.00 72 1025.0
20260508061543 7 266 3.2 11.3 0.00 0.00 0.00 73 1024.9
20260508061033 6 222 3.2 11.3 0.00 0.00 0.00 74 1024.9
20260508060536 6 253 1.6 11.3 0.00 0.00 0.00 75 1024.9
20260508055531 6 236 3.2 9.7 0.00 0.00 0.00 77 1024.9
20260508055031 6 263 3.2 8.0 0.00 0.00 0.00 78 1024.8
20260508054543 5 230 4.8 8.0 0.00 0.00 0.00 79 1024.8
20260508054030 5 229 3.2 8.0 0.00 0.00 0.00 80 1024.7
20260508053530 5 272 3.2 8.0 0.00 0.00 0.00 82 1024.7
20260508053043 4 262 4.8 11.3 0.00 0.00 0.00 81 1024.7
20260508052537 4 251 6.4 11.3 0.00 0.00 0.00 82 1024.6
20260508052034 4 253 4.8 9.7 0.00 0.00 0.00 82 1024.5
20260508051556 3 270 4.8 9.7 0.00 0.00 0.00 83 1024.4
20260508051034 3 245 4.8 9.7 0.00 0.00 0.00 83 1024.4
20260508050534 3 239 4.8 9.7 0.00 0.00 0.00 83 1024.3
20260508050049 3 232 4.8 11.3 0.00 0.00 0.00 84 1024.3
20260508045534 3 283 3.2 11.3 0.00 0.00 0.00 85 1024.3
20260508045036 3 229 4.8 11.3 0.00 0.00 0.00 85 1024.2
20260508044549 3 252 4.8 9.7 0.00 0.00 0.00 86 1024.2
20260508044033 3 262 4.8 9.7 0.00 0.00 0.00 86 1024.2
20260508043537 3 253 3.2 11.3 0.00 0.00 0.00 87 1024.1
20260508043041 2 264 4.8 11.3 0.00 0.00 0.00 87 1024.0
20260508042535 2 254 4.8 11.3 0.00 0.00 0.00 88 1024.0
20260508042033 2 259 3.2 9.7 0.00 0.00 0.00 90 1023.9
20260508041541 2 230 1.6 8.0 0.00 0.00 0.00 92 1023.9
20260508041033 1 236 3.2 11.3 0.00 0.00 0.00 94 1023.8
20260508040534 1 249 4.8 11.3 0.00 0.00 0.00 95 1023.7
20260508040050 0 237 4.8 9.7 0.00 0.00 0.00 95 1023.6
20260508035535 -1 212 3.2 6.4 0.00 0.00 0.00 94 1023.6
20260508035031 -1 229 3.2 8.0 0.00 0.00 0.00 94 1023.6
20260508034550 -2 243 3.2 8.0 0.00 0.00 0.00 93 1023.6
20260508034034 -2 228 4.8 8.0 0.00 0.00 0.00 93 1023.5
20260508033534 -3 211 1.6 4.8 0.00 0.00 0.00 92 1023.4
20260508033051 -3 249 0.0 3.2 0.00 0.00 0.00 92 1023.4
20260508032537 -3 220 0.0 3.2 0.00 0.00 0.00 92 1023.4
20260508032035 -3 0 0.0 4.8 0.00 0.00 0.00 92 1023.2
20260508031544 -3 232 1.6 4.8 0.00 0.00 0.00 91 1023.1
20260508031034 -3 236 1.6 4.8 0.00 0.00 0.00 91 1023.2
20260508030534 -4 226 1.6 6.4 0.00 0.00 0.00 91 1023.2
20260508030058 -4 243 3.2 6.4 0.00 0.00 0.00 90 1023.1
20260508025533 -4 239 1.6 4.8 0.00 0.00 0.00 90 1023.1
20260508025033 -4 0 1.6 6.4 0.00 0.00 0.00 90 1023.0
20260508024615 -4 220 1.6 6.4 0.00 0.00 0.00 90 1022.9
20260508024033 -4 238 1.6 4.8 0.00 0.00 0.00 89 1022.8
20260508023532 -4 228 0.0 1.6 0.00 0.00 0.00 89 1022.7
20260508023044 -4 0 0.0 0.0 0.00 0.00 0.00 89 1022.7
20260508022531 -4 0 0.0 0.0 0.00 0.00 0.00 89 1022.5
20260508022035 -4 0 0.0 0.0 0.00 0.00 0.00 89 1022.6
20260508021555 -4 0 0.0 0.0 0.00 0.00 0.00 89 1022.6
20260508021036 -4 0 0.0 0.0 0.00 0.00 0.00 89 1022.6
20260508020534 -4 0 0.0 0.0 0.00 0.00 0.00 89 1022.4
20260508020049 -4 0 0.0 0.0 0.00 0.00 0.00 89 1022.5
20260508015534 -4 0 0.0 0.0 0.00 0.00 0.00 89 1022.4
20260508015034 -4 0 0.0 0.0 0.00 0.00 0.00 89 1022.4
20260508014548 -4 0 0.0 0.0 0.00 0.00 0.00 89 1022.4
20260508014034 -4 0 0.0 0.0 0.00 0.00 0.00 88 1022.3
20260508013533 -4 0 0.0 0.0 0.00 0.00 0.00 88 1022.3
20260508013048 -4 0 0.0 0.0 0.00 0.00 0.00 88 1022.3
20260508012533 -4 0 0.0 0.0 0.00 0.00 0.00 88 1022.3
20260508012033 -4 0 0.0 0.0 0.00 0.00 0.00 88 1022.2
20260508011547 -4 0 0.0 1.6 0.00 0.00 0.00 88 1022.1
20260508011035 -3 0 0.0 3.2 0.00 0.00 0.00 88 1022.1
20260508010535 -3 0 0.0 3.2 0.00 0.00 0.00 88 1022.1
20260508010053 -3 228 0.0 3.2 0.00 0.00 0.00 88 1022.0
20260508005535 -3 0 0.0 3.2 0.00 0.00 0.00 87 1022.0
20260508005035 -3 0 0.0 3.2 0.00 0.00 0.00 87 1022.0
20260508004554 -3 0 0.0 3.2 0.00 0.00 0.00 87 1022.0
20260508004035 -3 0 0.0 0.0 0.00 0.00 0.00 87 1022.0
20260508003534 -3 0 0.0 0.0 0.00 0.00 0.00 87 1021.9
20260508003047 -3 0 0.0 0.0 0.00 0.00 0.00 87 1021.9
20260508002533 -3 0 0.0 0.0 0.00 0.00 0.00 87 1021.9
20260508002033 -3 0 0.0 0.0 0.00 0.00 0.00 87 1021.9
20260508001550 -3 0 0.0 0.0 0.00 0.00 0.00 86 1021.8
20260508001033 -3 0 0.0 0.0 0.00 0.00 0.00 86 1021.7
20260508000534 -3 0 0.0 0.0 0.00 0.00 0.00 85 1021.7
20260508000047 -3 0 0.0 0.0 0.00 0.00 0.00 85 1021.6
20260507235531 -3 0 0.0 0.0 0.00 0.00 0.00 85 1021.7
20260507235033 -3 0 0.0 0.0 0.00 0.00 0.00 85 1021.6
20260507234542 -3 0 0.0 0.0 0.00 0.00 0.00 85 1021.6
20260507234034 -3 0 0.0 0.0 0.00 0.00 0.00 85 1021.5
20260507233533 -3 0 0.0 0.0 0.00 0.00 0.00 85 1021.5
20260507233042 -3 0 0.0 0.0 0.00 0.00 0.00 85 1021.5
20260507232534 -3 0 0.0 0.0 0.00 0.00 0.00 84 1021.5
20260507232035 -3 0 0.0 0.0 0.00 0.00 0.00 84 1021.4
20260507231543 -3 0 0.0 0.0 0.00 0.00 0.00 84 1021.3
20260507231033 -3 0 0.0 0.0 0.00 0.00 0.00 84 1021.2
20260507230533 -3 0 0.0 0.0 0.00 0.00 0.00 84 1021.1
20260507230050 -3 0 0.0 0.0 0.00 0.00 0.00 84 1021.2
20260507225534 -3 0 0.0 0.0 0.00 0.00 0.00 84 1021.0
20260507225034 -3 0 0.0 0.0 0.00 0.00 0.00 84 1020.9
20260507224547 -2 0 0.0 0.0 0.00 0.00 0.00 84 1020.9
20260507224033 -2 0 0.0 0.0 0.00 0.00 0.00 83 1020.9
20260507223533 -2 0 0.0 0.0 0.00 0.00 0.00 83 1020.9
20260507223043 -2 0 0.0 0.0 0.00 0.00 0.00 83 1020.8
20260507222534 -2 0 0.0 0.0 0.00 0.00 0.00 83 1020.8
20260507222037 -2 0 0.0 0.0 0.00 0.00 0.00 83 1020.7
20260507221544 -2 0 0.0 0.0 0.00 0.00 0.00 83 1020.8
20260507221036 -2 0 0.0 0.0 0.00 0.00 0.00 82 1020.7
20260507220538 -2 0 0.0 0.0 0.00 0.00 0.00 81 1020.7
20260507220042 -2 0 0.0 0.0 0.00 0.00 0.00 80 1020.7
20260507215534 -2 0 0.0 0.0 0.00 0.00 0.00 80 1020.6
20260507215035 -2 0 0.0 0.0 0.00 0.00 0.00 80 1020.5
20260507214549 -2 0 0.0 0.0 0.00 0.00 0.00 79 1020.5
20260507214033 -2 0 0.0 0.0 0.00 0.00 0.00 79 1020.2
20260507213533 -1 0 0.0 0.0 0.00 0.00 0.00 78 1020.4
20260507213049 -1 0 0.0 0.0 0.00 0.00 0.00 78 1020.3
20260507212534 -1 0 0.0 0.0 0.00 0.00 0.00 79 1020.1
20260507212034 -1 0 0.0 0.0 0.00 0.00 0.00 80 1020.0
20260507211545 -1 0 0.0 0.0 0.00 0.00 0.00 79 1019.9
20260507211034 -1 0 0.0 0.0 0.00 0.00 0.00 79 1019.9
20260507210533 -1 0 0.0 0.0 0.00 0.00 0.00 78 1019.9
20260507210108 -1 0 0.0 0.0 0.00 0.00 0.00 78 1019.8
20260507205534 -1 0 0.0 0.0 0.00 0.00 0.00 77 1019.8
20260507205034 -1 0 0.0 0.0 0.00 0.00 0.00 76 1019.7
20260507204546 -1 0 0.0 0.0 0.00 0.00 0.00 77 1019.7
20260507204035 0 0 0.0 0.0 0.00 0.00 0.00 76 1019.6
20260507203535 0 0 0.0 0.0 0.00 0.00 0.00 76 1019.6
20260507203114 0 0 0.0 0.0 0.00 0.00 0.00 74 1019.6
20260507202537 0 0 0.0 0.0 0.00 0.00 0.00 74 1019.6
20260507202036 0 0 0.0 0.0 0.00 0.00 0.00 73 1019.5
20260507201538 0 0 0.0 0.0 0.00 0.00 0.00 72 1019.5
20260507201033 0 0 0.0 0.0 0.00 0.00 0.00 72 1019.4
20260507200533 0 0 0.0 0.0 0.00 0.00 0.00 71 1019.4
20260507200043 0 0 0.0 0.0 0.00 0.00 0.00 70 1019.3
20260507195541 1 0 0.0 0.0 0.00 0.00 0.00 68 1019.3
20260507195033 1 0 0.0 1.6 0.00 0.00 0.00 69 1019.2
20260507194538 1 0 0.0 3.2 0.00 0.00 0.00 69 1019.3
20260507194033 1 0 0.0 3.2 0.00 0.00 0.00 68 1019.2
20260507193532 1 266 0.0 3.2 0.00 0.00 0.00 67 1019.1
20260507193041 2 266 0.0 3.2 0.00 0.00 0.00 66 1019.1
20260507192534 2 0 0.0 3.2 0.00 0.00 0.00 63 1018.9
20260507192033 2 266 0.0 3.2 0.00 0.00 0.00 64 1018.9
20260507191550 3 0 0.0 3.2 0.00 0.00 0.00 64 1018.9
20260507191035 3 0 0.0 3.2 0.00 0.00 0.00 63 1018.8
20260507190532 3 0 0.0 4.8 0.00 0.00 0.00 63 1018.7
20260507190045 3 0 0.0 4.8 0.00 0.00 0.00 63 1018.7
20260507185531 3 0 1.6 4.8 0.00 0.00 0.00 64 1018.7
20260507185031 3 279 1.6 4.8 0.00 0.00 0.00 63 1018.6
20260507184542 3 320 0.0 4.8 0.00 0.00 0.00 63 1018.7
20260507184036 3 0 0.0 4.8 0.00 0.00 0.00 63 1018.6
20260507183534 4 0 0.0 4.8 0.00 0.00 0.00 62 1018.5
20260507183042 4 302 0.0 9.7 0.00 0.00 0.00 62 1018.4
20260507182536 5 0 1.6 9.7 0.00 0.00 0.00 60 1018.4
20260507182035 5 301 0.0 9.7 0.00 0.00 0.00 58 1018.3
20260507181542 5 285 1.6 9.7 0.00 0.00 0.00 56 1018.2
20260507181033 5 316 1.6 12.9 0.00 0.00 0.00 55 1018.2
20260507180532 5 320 3.2 12.9 0.00 0.00 0.00 56 1018.2
20260507180041 6 322 4.8 9.7 0.00 0.00 0.00 55 1018.1
20260507175538 6 357 4.8 11.3 0.00 0.00 0.00 53 1018.0
20260507175034 6 4 1.6 11.3 0.00 0.00 0.00 53 1017.9
20260507174547 6 280 3.2 11.3 0.00 0.00 0.00 51 1017.8
20260507174034 6 330 4.8 12.9 0.00 0.00 0.00 49 1017.8
20260507173532 6 0 3.2 16.1 0.00 0.00 0.00 47 1017.8
20260507173110 6 4 4.8 16.1 0.00 0.00 0.00 49 1017.7
20260507172530 7 247 4.8 14.5 0.00 0.00 0.00 49 1017.7
20260507172031 7 328 1.6 12.9 0.00 0.00 0.00 48 1017.6
20260507171543 7 259 3.2 19.3 0.00 0.00 0.00 47 1017.6
20260507171032 7 332 3.2 19.3 0.00 0.00 0.00 46 1017.5
20260507170531 7 311 4.8 19.3 0.00 0.00 0.00 44 1017.4
20260507170042 7 305 4.8 17.7 0.00 0.00 0.00 44 1017.4
20260507165530 7 334 3.2 17.7 0.00 0.00 0.00 44 1017.3
20260507165029 7 288 4.8 17.7 0.00 0.00 0.00 44 1017.2
20260507164539 7 328 9.7 17.7 0.00 0.00 0.00 44 1017.2
20260507164032 8 276 6.4 22.5 0.00 0.00 0.00 44 1017.3
20260507163531 8 297 8.0 22.5 0.00 0.00 0.00 44 1017.2
20260507163041 8 280 11.3 22.5 0.00 0.00 0.00 43 1017.2
20260507162535 8 269 8.0 24.1 0.00 0.00 0.00 42 1017.1
20260507162031 8 291 9.7 24.1 0.00 0.00 0.00 40 1017.0
20260507161551 8 333 4.8 24.1 0.00 0.00 0.00 41 1016.9
20260507161033 8 18 9.7 24.1 0.00 0.00 0.00 41 1016.9
20260507160530 8 336 1.6 24.1 0.00 0.00 0.00 41 1016.8
20260507160051 8 319 8.0 24.1 0.00 0.00 0.00 41 1016.9
20260507155534 8 268 6.4 24.1 0.00 0.00 0.00 42 1016.8
20260507155030 8 295 4.8 30.6 0.00 0.00 0.00 41 1016.8
20260507154542 8 315 19.3 30.6 0.00 0.00 0.00 40 1016.7
20260507154032 8 274 12.9 27.4 0.00 0.00 0.00 43 1016.7
20260507153532 9 280 8.0 27.4 0.00 0.00 0.00 42 1016.7
20260507153047 9 274 9.7 25.7 0.00 0.00 0.00 40 1016.6
20260507152533 9 286 11.3 22.5 0.00 0.00 0.00 42 1016.5
20260507152032 9 288 3.2 22.5 0.00 0.00 0.00 43 1016.5
20260507151544 9 317 8.0 22.5 0.00 0.00 0.00 41 1016.6
20260507151030 9 309 8.0 19.3 0.00 0.00 0.00 41 1016.6
20260507150531 9 250 8.0 22.5 0.00 0.00 0.00 39 1016.4
20260507150043 9 291 9.7 22.5 0.00 0.00 0.00 43 1016.4
20260507145531 9 284 12.9 22.5 0.00 0.00 0.00 46 1016.4
20260507145029 10 266 6.4 22.5 0.00 0.00 0.00 44 1016.3
20260507144539 9 272 11.3 24.1 0.00 0.00 0.00 43 1016.4
20260507144032 9 307 8.0 29.0 0.00 0.00 0.00 44 1016.3
20260507143534 9 288 17.7 29.0 0.00 0.00 0.00 43 1016.3
20260507143059 10 283 12.9 29.0 0.00 0.00 0.00 44 1016.2
20260507142535 9 258 19.3 29.0 0.00 0.00 0.00 45 1016.2
20260507142034 10 275 14.5 32.2 0.00 0.00 0.00 47 1016.3
20260507141601 9 259 16.1 32.2 0.00 0.00 0.00 46 1016.2
20260507141031 9 288 19.3 32.2 0.00 0.00 0.00 44 1016.2
20260507140534 9 278 16.1 32.2 0.00 0.00 0.00 46 1016.1
20260507140044 9 315 12.9 29.0 0.00 0.00 0.00 50 1016.1
20260507135534 9 271 19.3 29.0 0.00 0.00 0.00 46 1016.0
20260507135036 9 282 17.7 27.4 0.00 0.00 0.00 47 1015.9
20260507134544 10 256 12.9 29.0 0.00 0.00 0.00 47 1015.9
20260507134035 9 275 16.1 30.6 0.00 0.00 0.00 50 1015.9
20260507133534 10 272 20.9 30.6 0.00 0.00 0.00 48 1015.9
20260507133108 10 260 12.9 33.8 0.00 0.00 0.00 52 1015.8
20260507132536 10 258 16.1 33.8 0.00 0.00 0.00 48 1015.8
20260507132033 10 251 19.3 33.8 0.00 0.00 0.00 48 1015.8
20260507131545 10 253 12.9 30.6 0.00 0.00 0.00 49 1015.7
20260507131032 10 241 17.7 30.6 0.00 0.00 0.00 50 1015.7
20260507130536 10 258 17.7 30.6 0.00 0.00 0.00 48 1015.8
20260507130101 10 274 16.1 32.2 0.00 0.00 0.00 49 1015.8
20260507125531 10 252 19.3 32.2 0.00 0.00 0.00 49 1015.8
20260507125034 9 254 16.1 29.0 0.00 0.00 0.00 52 1015.7
20260507124548 8 291 14.5 29.0 0.00 0.00 0.00 53 1015.7
20260507124031 8 249 12.9 30.6 0.00 0.00 0.00 53 1015.7
20260507123536 8 251 17.7 33.8 0.00 0.00 0.00 51 1015.7
20260507123047 10 258 12.9 33.8 0.00 0.00 0.00 50 1015.6
20260507122534 10 241 20.9 33.8 0.00 0.00 0.00 50 1015.6
20260507122032 9 261 22.5 32.2 0.00 0.00 0.00 54 1015.6
20260507121542 8 279 16.1 27.4 0.00 0.00 0.00 53 1015.5
20260507121033 9 267 16.1 32.2 0.00 0.00 0.00 51 1015.5
20260507120533 10 229 16.1 37.0 0.00 0.00 0.00 53 1015.5
20260507120039 10 259 17.7 37.0 0.00 0.00 0.00 51 1015.6
20260507115534 10 261 22.5 37.0 0.00 0.00 0.00 50 1015.6
20260507115033 10 266 17.7 37.0 0.00 0.00 0.00 50 1015.6
20260507114559 10 205 19.3 37.0 0.00 0.00 0.00 50 1015.6
20260507114034 10 232 19.3 38.6 0.00 0.00 0.00 52 1015.5
20260507113606 9 266 24.1 38.6 0.00 0.00 0.00 52 1015.6
20260507113044 9 232 22.5 37.0 0.00 0.00 0.00 50 1015.6
20260507112533 10 230 22.5 37.0 0.00 0.00 0.00 52 1015.5
20260507112038 8 265 19.3 33.8 0.00 0.00 0.00 53 1015.6
20260507111542 8 254 19.3 38.6 0.00 0.00 0.00 53 1015.6
20260507111034 8 260 20.9 38.6 0.00 0.00 0.00 52 1015.6
20260507110534 8 283 16.1 29.0 0.00 0.00 0.00 50 1015.5
20260507110043 9 215 14.5 27.4 0.00 0.00 0.00 46 1015.4
20260507105532 9 269 16.1 27.4 0.00 0.00 0.00 48 1015.5
20260507105032 8 247 16.1 33.8 0.00 0.00 0.00 45 1015.4
20260507104548 8 251 19.3 33.8 0.00 0.00 0.00 46 1015.5
20260507104032 8 238 12.9 32.2 0.00 0.00 0.00 48 1015.5
20260507103537 8 266 12.9 33.8 0.00 0.00 0.00 48 1015.4
20260507103049 8 223 20.9 33.8 0.00 0.00 0.00 47 1015.4
20260507102532 8 247 17.7 32.2 0.00 0.00 0.00 46 1015.4